Scio, NY

7:23 PM EST on February 19, 2017 (GMT -0500)
Wellsville Municipal-Tarantine

Weather History for KELZ - January, 2013

Change the Weather History Date:

Tuesday, January 29, 2013

  Actual Average (KDSV) Record (KDSV)
Temperature  
Mean Temperature 46 °F -  
Max Temperature 55 °F 32 °F 55 °F (2013)
Min Temperature 37 °F 14 °F -9 °F (1963)
Degree Days  
Heating Degree Days 19    
Moisture  
Dew Point 42 °F    
Average Humidity 88    
Maximum Humidity 93    
Minimum Humidity 80    
Precipitation  
Precipitation 0.45 in - - ()
Sea Level Pressure  
Sea Level Pressure 29.96 in    
Wind  
Wind Speed 7 mph (SSW)    
Max Wind Speed 14 mph    
Max Gust Speed 22 mph    
Visibility 5 miles    
Events Fog , Rain , Thunderstorm    
Averages and records for this station are not official NWS values.
T = Trace of Precipitation, MM = Missing Value Source: NWS Daily Summary

Daily Weather History Graph

Daily Weather History Graph

Search for Another Location

Airport or City:

Trip Planner

Search our weather history database for the weather conditions in past years. The results will help you decide how hot, cold, wet, or windy it might be!

Date:

Astronomy

Jan. 29, 2013 Rise Set
Actual Time 7:27 AM EST 5:23 PM EST
Civil Twilight 6:57 AM EST 5:52 PM EST
Nautical Twilight 6:24 AM EST 6:26 PM EST
Astronomical Twilight 5:51 AM EST 6:59 PM EST
Moon 8:21 PM EST (1/29) 8:20 AM EST (1/29)
Length of Visible Light 10h 55m
Length of Day
9h 55m
Waning Gibbous, 94% of the Moon is Illuminated
Jan 29
Waning Gibbous
Feb 3
Last Quarter
Feb 10
New
Feb 17
First Quarter
Feb 25
Full

Hourly Weather History & Observations

Time (EST) Temp. Windchill Dew Point Humidity Pressure Visibility Wind Dir Wind Speed Gust Speed Precip Events Conditions
12:18 AM 42.8 °F 36.2 °F 39.2 °F 87% 29.95 in 8.0 mi WNW 12.7 mph - N/A   Overcast
12:56 AM 42.1 °F 36.1 °F 39.0 °F 89% 30.01 in 9.0 mi NW 10.4 mph - N/A   Overcast
1:16 AM 42.8 °F 38.0 °F 39.2 °F 87% 29.96 in 8.0 mi NW 8.1 mph - N/A   Overcast
1:56 AM 39.9 °F 33.4 °F 37.0 °F 89% 30.02 in 8.0 mi NW 10.4 mph - N/A   Overcast
2:56 AM 39.0 °F 31.4 °F 36.0 °F 89% 30.04 in 6.0 mi NW 12.7 mph - N/A   Overcast
3:47 AM 37.4 °F 32.1 °F 35.6 °F 93% 29.99 in 3.0 mi WNW 6.9 mph - N/A   Overcast
3:56 AM 37.9 °F 33.5 °F 36.0 °F 93% 30.04 in 3.0 mi WNW 5.8 mph - N/A   Overcast
4:25 AM 37.4 °F 34.9 °F 35.6 °F 93% 29.99 in 2.0 mi NW 3.5 mph - N/A   Overcast
4:40 AM 37.4 °F 34.9 °F 35.6 °F 93% 29.99 in 3.0 mi NW 3.5 mph - N/A   Overcast
4:56 AM 37.9 °F 35.5 °F 35.1 °F 89% 30.04 in 4.0 mi WNW 3.5 mph - N/A   Overcast
5:10 AM 37.4 °F - 35.6 °F 93% 30.00 in 2.0 mi Calm Calm - N/A   Overcast
5:18 AM 37.4 °F - 35.6 °F 93% 30.00 in 1.2 mi Calm Calm - N/A   Overcast
5:31 AM 37.4 °F - 35.6 °F 93% 30.00 in 3.0 mi Calm Calm - N/A   Overcast
5:56 AM 39.0 °F - 36.0 °F 89% 30.05 in 4.0 mi Calm Calm - N/A   Overcast
6:15 AM 37.4 °F - 35.6 °F 93% 30.00 in 1.5 mi Calm Calm - N/A   Overcast
6:30 AM 39.2 °F - 35.6 °F 87% 30.00 in 3.0 mi Calm Calm - N/A   Overcast
6:41 AM 37.4 °F - 35.6 °F 93% 30.00 in 1.5 mi Calm Calm - N/A   Overcast
6:48 AM 37.4 °F - 35.6 °F 93% 30.00 in 0.5 mi Calm Calm - N/A Fog Fog
6:56 AM 39.0 °F - 36.0 °F 89% 30.04 in 1.0 mi Calm Calm - N/A   Overcast
7:01 AM 39.2 °F - 35.6 °F 87% 30.00 in 3.0 mi Calm Calm - N/A   Overcast
7:27 AM 39.2 °F 37.0 °F 35.6 °F 87% 30.00 in 1.5 mi ESE 3.5 mph - N/A   Overcast
7:34 AM 37.4 °F - 35.6 °F 93% 30.01 in 0.2 mi Calm Calm - N/A Fog Fog
7:56 AM 39.0 °F - 37.0 °F 93% 30.05 in 0.2 mi Calm Calm - N/A Fog Fog
8:29 AM 39.2 °F 35.9 °F 37.4 °F 93% 30.02 in 1.2 mi South 4.6 mph - N/A   Overcast
8:53 AM 39.2 °F 37.0 °F 37.4 °F 93% 30.01 in 0.2 mi SE 3.5 mph - N/A Fog Fog
8:56 AM 39.9 °F 37.8 °F 37.9 °F 93% 30.05 in 0.2 mi SE 3.5 mph - N/A Fog Fog
9:05 AM 39.2 °F 37.0 °F 37.4 °F 93% 30.00 in 0.2 mi ESE 3.5 mph - N/A Fog Fog
9:56 AM 43.0 °F 40.3 °F 41.0 °F 93% 30.03 in 0.2 mi South 4.6 mph - N/A Fog Fog
10:09 AM 44.6 °F 43.1 °F 41.0 °F 87% 30.00 in 0.8 mi South 3.5 mph - N/A   Mist
10:33 AM 44.6 °F 42.2 °F 42.8 °F 93% 29.99 in 0.2 mi SSE 4.6 mph - N/A Fog Fog
10:56 AM 45.0 °F 41.8 °F 42.1 °F 90% 30.01 in 0.2 mi South 5.8 mph - N/A Fog Fog
11:08 AM 44.6 °F 40.7 °F 42.8 °F 93% 29.97 in 0.8 mi Variable 6.9 mph - N/A   Mist
11:15 AM 46.4 °F 42.9 °F 42.8 °F 87% 29.96 in 1.5 mi South 6.9 mph - N/A   Overcast
11:19 AM 46.4 °F 42.4 °F 42.8 °F 87% 29.96 in 3.0 mi South 8.1 mph - N/A   Overcast
11:53 AM 46.4 °F 42.4 °F 44.6 °F 93% 29.94 in 10.0 mi South 8.1 mph - N/A   Overcast
11:56 AM 46.9 °F - 44.1 °F 90% 29.98 in 9.0 mi SSW 8.1 mph - N/A   Overcast
12:21 PM 48.2 °F - 44.6 °F 87% 29.92 in 2.5 mi South 12.7 mph 19.6 mph N/A   Overcast
12:35 PM 48.2 °F - 44.6 °F 87% 29.92 in 1.5 mi SSW 13.8 mph 20.7 mph N/A   Overcast
12:56 PM 48.0 °F - 45.0 °F 89% 29.95 in 1.0 mi SSW 10.4 mph 18.4 mph N/A   Overcast
1:20 PM 50.0 °F - 44.6 °F 82% 29.95 in 1.0 mi WSW 6.9 mph - 0.22 in Rain Heavy Rain
1:27 PM 48.2 °F - 44.6 °F 87% 29.94 in 1.0 mi SSW 9.2 mph - 0.31 in Rain Heavy Rain
1:34 PM 48.2 °F - 44.6 °F 87% 29.93 in 1.5 mi SSW 6.9 mph - 0.35 in Rain , Thunderstorm Heavy Rain
1:39 PM 48.2 °F - 44.6 °F 87% 29.92 in 2.5 mi SSW 8.1 mph - 0.37 in Rain Heavy Rain
1:47 PM 48.2 °F - 44.6 °F 87% 29.91 in 5.0 mi South 9.2 mph - 0.39 in Rain Rain
1:56 PM 48.9 °F - 45.0 °F 86% 29.94 in 8.0 mi South 10.4 mph - 0.40 in Rain Light Rain
2:56 PM 50.0 °F - 46.0 °F 86% 29.93 in 10.0 mi SSW 9.2 mph - 0.02 in   Overcast
3:05 PM 50.0 °F - 46.4 °F 87% 29.90 in 10.0 mi SW 5.8 mph - N/A   Overcast
3:39 PM 50.0 °F - 46.4 °F 87% 29.91 in 5.0 mi South 6.9 mph - N/A   Overcast
3:52 PM 50.0 °F - 46.4 °F 87% 29.92 in 2.5 mi South 6.9 mph - N/A   Overcast
3:56 PM 50.0 °F - 46.0 °F 86% 29.94 in 2.5 mi SSW 6.9 mph - N/A   Overcast
4:12 PM 50.0 °F - 46.4 °F 87% 29.91 in 1.5 mi SSW 8.1 mph 16.1 mph N/A   Overcast
4:28 PM 50.0 °F - 46.4 °F 87% 29.91 in 2.0 mi SSW 8.1 mph - 0.00 in Rain Light Rain
4:56 PM 50.0 °F - 46.9 °F 89% 29.94 in 4.0 mi Variable 5.8 mph - 0.00 in   Overcast
5:37 PM 51.8 °F - 48.2 °F 88% 29.90 in 10.0 mi SSW 11.5 mph 17.3 mph N/A   Overcast
5:49 PM 51.8 °F - 48.2 °F 88% 29.90 in 10.0 mi SSW 6.9 mph - N/A   Overcast
5:56 PM 52.0 °F - 48.0 °F 86% 29.93 in 10.0 mi SSW 8.1 mph - N/A   Overcast
6:02 PM 51.8 °F - 48.2 °F 88% 29.90 in 10.0 mi SSW 8.1 mph - N/A   Overcast
6:29 PM 53.6 °F - 48.2 °F 82% 29.90 in 10.0 mi Variable 5.8 mph - N/A   Overcast
6:36 PM 53.6 °F - 48.2 °F 82% 29.90 in 10.0 mi SW 10.4 mph 18.4 mph N/A   Overcast
6:45 PM 53.6 °F - 48.2 °F 82% 29.89 in 10.0 mi SSW 9.2 mph 18.4 mph N/A   Mostly Cloudy
6:56 PM 54.0 °F - 48.9 °F 83% 29.91 in 10.0 mi SSW 8.1 mph 16.1 mph N/A   Mostly Cloudy
7:10 PM 53.6 °F - 48.2 °F 82% 29.89 in 10.0 mi SSW 6.9 mph 17.3 mph N/A   Mostly Cloudy
7:42 PM 53.6 °F - 50.0 °F 88% 29.89 in 10.0 mi SW 12.7 mph 21.9 mph 0.01 in Rain Light Rain
7:56 PM 54.0 °F - 50.0 °F 86% 29.91 in 7.0 mi SW 13.8 mph 21.9 mph 0.02 in Rain Rain
8:56 PM 55.0 °F - 50.0 °F 83% 29.89 in 8.0 mi SSW 8.1 mph - 0.01 in Rain Light Rain
9:56 PM 55.0 °F - 48.9 °F 80% 29.89 in 10.0 mi South 10.4 mph 17.3 mph 0.00 in   Overcast
10:56 PM 53.1 °F - 48.0 °F 83% 29.87 in 10.0 mi South 8.1 mph - N/A   Clear
11:56 PM 54.0 °F - 48.0 °F 80% 29.83 in 10.0 mi South 12.7 mph 19.6 mph N/A   Clear